Location: Cheching
(60.0667°N, 164.2167°W)
Time: 04:27:01
(UTC+00:00)

AIST 2D - Pass Details

Date: 23 January 2021
Orbit: 450 x 467 km, 97.1° (Epoch: 03 March)

Event Time Altitude Azimuth Distance (km) Brightness Sun altitude
Rises 18:10:15 0° 105° (ESE) 2,505 ? -9.3°
Reaches altitude 10° 18:13:17 10° 75° (ENE) 1,630 ? -8.9°
Maximum altitude 18:14:47 12° 50° (NE) 1,484 ? -8.8°
Drops below altitude 10° 18:16:18 10° 24° (NNE) 1,630 ? -8.6°
Sets 18:19:20 0° 354° (N) 2,507 ? -8.2°
